User: anonymous
Location: Stigler
(35.2540°N, 95.1230°W)
Time: 06:06:54
(UTC-05:00)
Language:

Cosmos 1805 - Orbit

View from above orbital plane
View from above orbital plane
View from above satellite
View from above satellite

Ground track
Ground track

The orbit data is extracted from the following two-line orbital elements,

1 17191U 86097A   14210.44372699  .00002825  00000-0  18385-3 0  9491
2 17191 082.5007 344.3460 0011619 064.7790 295.4641 15.07544091504598
Epoch (UTC): 29 July 2014 10:38:58
Eccentricity: 0.0011619
inclination: 82.5007°
perigee height: 535 km
apogee height: 552 km
right ascension of ascending node: 344.3460°
argument of perigee: 64.7790°
revolutions per day: 15.07544091
mean anomaly at epoch: 295.4641°
orbit number at epoch: 50459

The dashed part of the orbit path shows where the satellite is in the earth's shadow,  

DLR